Location: Unspecified
(0.0000°N, 0.0000°E)
Time: 03:49:55
(UTC+02:00)

Iridium 84 - Visible Passes

Search period start: 02 September 2014 00:00
Search period end: 12 September 2014 00:00
Orbit: 776 x 779 km, 86.4° (Epoch: 01 September)

Date Brightness Start Highest point End Pass type
(mag) Time Alt. Az. Time Alt. Az. Time Alt. Az.
02 Sep 7.8 06:08:56 10° SE 06:13:05 24° E 06:17:12 10° NE visible
03 Sep 8.7 05:38:53 10° E 05:39:37 10° E 05:40:21 10° E visible
03 Sep 5.9 07:15:10 10° SSW 07:20:03 41° W 07:24:55 10° NNW visible
04 Sep 5.5 06:41:22 10° S 06:46:36 88° E 06:51:48 10° N visible
05 Sep 6.9 06:08:19 10° SSE 06:13:08 39° E 06:17:56 10° NNE visible
06 Sep 8.1 05:36:16 10° SE 05:39:41 18° E 05:43:04 10° NE visible
06 Sep 6.5 07:15:52 10° SW 07:20:06 25° W 07:24:20 10° NW visible
07 Sep 5.5 06:41:33 10° SSW 06:46:39 57° W 06:51:44 10° NNW visible
08 Sep 5.9 06:08:02 10° S 06:13:12 64° E 06:18:19 10° N visible
09 Sep 7.3 05:35:18 10° SSE 05:39:44 28° E 05:44:08 10° NNE visible
09 Sep 6.9 07:17:06 10° SW 07:20:09 16° W 07:23:11 10° NW visible
10 Sep 8.4 05:04:07 10° ESE 05:06:17 13° E 05:08:26 10° ENE visible
10 Sep 6.0 06:43:12 16° SSW 06:46:42 35° W 06:51:23 10° NNW visible
11 Sep 5.3 06:13:15 79° W 06:13:15 79° W 06:18:26 10° N visible
